Location: Herronton
(50.6333°N, 113.4167°W)
Time: 15:14:07
(UTC+00:00)

Envisat - Visible Passes

Search period start: 02 December 2021 00:00
Search period end: 12 December 2021 00:00
Orbit: 764 x 766 km, 98.2° (Epoch: 02 December)

Date Brightness Start Highest point End Pass type
(mag) Time Alt. Az. Time Alt. Az. Time Alt. Az.
02 Dec 6.3 01:28:05 10° W 01:29:27 11° W 01:30:47 10° WNW visible
02 Dec 4.9 11:48:36 10° NE 11:52:59 28° E 11:57:21 10° SSE visible
02 Dec 3.2 13:27:20 10° N 13:32:12 47° WNW 13:37:03 10° SW visible
03 Dec 5.6 00:48:07 10° SW 00:52:03 22° W 00:56:01 10° NW visible
03 Dec 5.8 11:12:55 10° NE 11:15:41 14° E 11:18:25 10° ESE visible
03 Dec 2.9 12:50:19 10° NNE 12:55:26 90° ESE 13:00:32 10° SSW visible
03 Dec 4.4 14:30:33 10° NNW 14:33:47 17° NW 14:37:02 10° W visible
04 Dec 4.4 00:10:03 10° S 00:14:53 44° W 00:19:45 10° NNW visible
04 Dec 4.0 12:13:35 10° NNE 12:18:29 45° E 12:23:20 10° S visible
04 Dec 3.7 13:52:55 10° N 13:57:20 31° WNW 14:01:44 10° WSW visible
05 Dec 6.0 01:15:08 10° WSW 01:17:42 14° W 01:20:17 10° NW visible
05 Dec 5.2 11:37:16 10° NE 11:41:19 23° E 11:45:20 10° SE visible
05 Dec 3.0 13:15:42 10° N 13:20:42 57° WNW 13:25:40 10° SSW visible
06 Dec 5.3 00:36:05 10° SSW 00:40:23 27° W 00:44:42 10° NW visible
06 Dec 6.0 11:02:16 10° ENE 11:03:56 11° E 11:05:37 10° ESE visible
06 Dec 3.1 12:38:46 10° NNE 12:43:52 74° ESE 12:48:57 10° S visible
06 Dec 4.2 14:18:41 10° N 14:22:22 21° WNW 14:26:03 10° WSW visible
06 Dec 4.0 23:58:18 10° S 00:03:16 54° W 00:08:16 10° NNW visible
07 Dec 4.4 12:02:08 10° NNE 12:06:51 37° E 12:11:32 10° SSE visible
07 Dec 3.5 13:41:14 10° N 13:45:52 37° WNW 13:50:30 10° SW visible
08 Dec 5.9 01:02:41 10° SW 01:05:59 17° W 01:09:17 10° NW visible
08 Dec 5.5 11:26:02 10° NE 11:29:37 19° E 11:33:12 10° SE visible
08 Dec 2.9 13:04:05 10° N 13:09:10 71° WNW 13:14:13 10° SSW visible
09 Dec 4.9 00:24:09 10° SSW 00:28:43 33° W 00:33:20 10° NNW visible
09 Dec 3.5 12:27:14 10° NNE 12:32:17 60° E 12:37:18 10° S visible
09 Dec 4.0 14:06:54 10° N 14:10:57 24° WNW 14:14:58 10° WSW visible
10 Dec 6.4 01:31:12 10° W 01:31:41 10° W 01:32:10 10° WNW visible
10 Dec 4.7 11:50:43 10° NNE 11:55:12 30° E 11:59:39 10° SSE visible
10 Dec 3.2 13:29:33 10° N 13:34:23 44° WNW 13:39:11 10° SW visible
11 Dec 5.7 00:50:28 10° SW 00:54:17 21° W 00:58:07 10° NW visible
11 Dec 5.7 11:14:56 10° NE 11:17:55 15° E 11:20:53 10° ESE visible
11 Dec 2.9 12:52:30 10° NNE 12:57:38 86° WNW 13:02:42 10° SSW visible
11 Dec 4.4 14:32:49 10° NNW 14:35:56 16° NW 14:39:02 10° W visible
